Weather History for K3LF - October, 2013

Change the Weather History Date:

Saturday, October 5, 2013

  Actual Average (KSPI) Record (KSPI)
Temperature  
Mean Temperature 66 °F 59 °F  
Max Temperature 79 °F 71 °F 89 °F (2007)
Min Temperature 54 °F 47 °F 28 °F (2004)
Degree Days  
Heating Degree Days 0 8  
Month to date heating degree days 35  
Since 1 July heating degree days 116  
Cooling Degree Days 1 1  
Month to date cooling degree days 7  
Year to date cooling degree days 1106  
Growing Degree Days 16 (Base 50)    
Moisture  
Dew Point 66 °F    
Average Humidity 88    
Maximum Humidity 100    
Minimum Humidity 65    
Precipitation  
Precipitation 0.01 in 0.10 in 2.41 in (1955)
Month to date precipitation 0.50  
Year to date precipitation 29.05  
Snow  
Snow 0.00 in 0.00 in 0.00 in ()
Month to date snowfall 0.0  
Since 1 July snowfall 0.0  
Since 1 September snowfall 0.0  
Snow Depth -    
Sea Level Pressure  
Sea Level Pressure 29.92 in    
Wind  
Wind Speed 7 mph (SSW)    
Max Wind Speed 14 mph    
Max Gust Speed 22 mph    
Visibility 8 miles    
Events Rain , Thunderstorm    
T = Trace of Precipitation, MM = Missing Value Source: NWS Daily Summary

Daily Weather History Graph

Daily Weather History Graph

Search for Another Location

Airport or City:

Trip Planner

Search our weather history database for the weather conditions in past years. The results will help you decide how hot, cold, wet, or windy it might be!

Date:

Astronomy

Oct. 05, 2013 Rise Set
Actual Time 6:58 AM CDT 6:34 PM CDT
Civil Twilight 6:32 AM CDT 7:01 PM CDT
Nautical Twilight 6:01 AM CDT 7:32 PM CDT
Astronomical Twilight 5:29 AM CDT 8:03 PM CDT
Moon 7:37 AM CDT (10/5) 6:54 PM CDT (10/5)
Length of Visible Light 12h 29m
Length of Day
11h 35m
New Moon, 1% of the Moon is Illuminated
Oct 5
New Moon
Oct 11
First Quarter
Oct 18
Full
Oct 26
Last Quarter
Nov 3
New

Hourly Weather History & Observations

Time (CDT) Temp. Dew Point Humidity Pressure Visibility Wind Dir Wind Speed Gust Speed Precip Events Conditions
12:15 AM 70.2 °F 68.9 °F 96% 29.97 in 10.0 mi South 6.9 mph - N/A   Clear
12:35 AM 70.2 °F 68.9 °F 96% 29.97 in 10.0 mi South 6.9 mph - N/A   Clear
12:55 AM 70.2 °F 68.9 °F 96% 29.97 in 10.0 mi South 5.8 mph - N/A   Clear
1:15 AM 69.8 °F 68.9 °F 97% 29.97 in 7.0 mi South 8.1 mph - N/A   Clear
1:35 AM 69.8 °F 68.9 °F 97% 29.97 in 7.0 mi South 6.9 mph - N/A   Clear
1:55 AM 69.4 °F 68.5 °F 97% 29.97 in 7.0 mi South 6.9 mph - N/A   Clear
2:15 AM 69.3 °F 68.5 °F 98% 29.97 in 7.0 mi South 6.9 mph - N/A   Clear
2:35 AM 68.9 °F 68.2 °F 98% 29.97 in 7.0 mi South 5.8 mph - N/A   Clear
2:55 AM 68.9 °F 68.2 °F 98% 29.96 in 5.0 mi SSE 5.8 mph - N/A   Clear
3:15 AM 68.4 °F 68.0 °F 99% 29.95 in 5.0 mi South 5.8 mph - N/A   Clear
3:35 AM 68.4 °F 68.0 °F 99% 29.96 in 5.0 mi South 5.8 mph - N/A   Clear
3:55 AM 68.5 °F 68.2 °F 99% 29.95 in 5.0 mi South 6.9 mph - N/A   Clear
4:15 AM 68.4 °F 68.0 °F 99% 29.95 in 4.0 mi South 5.8 mph - N/A   Clear
4:35 AM 68.2 °F 68.0 °F 99% 29.95 in 4.0 mi SSE 5.8 mph - N/A   Clear
4:55 AM 68.0 °F 67.6 °F 99% 29.95 in 4.0 mi SSE 6.9 mph - N/A   Clear
5:15 AM 68.0 °F 68.0 °F 100% 29.94 in 4.0 mi SSE 8.1 mph - N/A   Clear
5:35 AM 68.2 °F 68.0 °F 99% 29.94 in 4.0 mi SSE 8.1 mph - N/A   Clear
5:55 AM 68.4 °F 68.2 °F 99% 29.94 in 4.0 mi SSE 8.1 mph - N/A   Clear
6:15 AM 68.7 °F 68.4 °F 99% 29.95 in 4.0 mi South 8.1 mph - N/A   Mostly Cloudy
6:35 AM 68.9 °F 68.5 °F 99% 29.94 in 3.0 mi South 6.9 mph - N/A   Overcast
6:55 AM 68.9 °F 68.5 °F 99% 29.94 in 3.0 mi South 6.9 mph - N/A   Overcast
7:15 AM 68.9 °F 68.5 °F 99% 29.94 in 2.0 mi South 6.9 mph - N/A   Overcast
7:35 AM 69.1 °F 68.9 °F 99% 29.94 in 2.5 mi South 8.1 mph - N/A   Overcast
7:55 AM 69.4 °F 69.1 °F 99% 29.94 in 3.0 mi South 6.9 mph - N/A   Overcast
8:15 AM 70.0 °F 69.8 °F 99% 29.94 in 3.0 mi South 8.1 mph - N/A   Overcast
8:35 AM 70.3 °F 69.8 °F 98% 29.94 in 4.0 mi South 6.9 mph - N/A   Overcast
8:55 AM 71.6 °F 70.3 °F 96% 29.94 in 5.0 mi SSE 9.2 mph - N/A   Overcast
9:15 AM 72.0 °F 70.3 °F 95% 29.95 in 7.0 mi SSE 10.4 mph - N/A   Overcast
9:35 AM 73.2 °F 70.7 °F 92% 29.95 in 7.0 mi SSE 8.1 mph - N/A   Overcast
9:55 AM 73.6 °F 70.2 °F 89% 29.95 in 10.0 mi SSE 9.2 mph - N/A   Overcast
10:15 AM 73.4 °F 70.0 °F 89% 29.96 in 10.0 mi SSE 8.1 mph - N/A   Overcast
10:35 AM 75.2 °F 70.5 °F 85% 29.96 in 10.0 mi SE 8.1 mph - N/A   Mostly Cloudy
10:55 AM 75.6 °F 70.5 °F 84% 29.96 in 10.0 mi SE 6.9 mph - N/A   Mostly Cloudy
11:15 AM 76.3 °F 69.6 °F 80% 29.96 in 10.0 mi SE 9.2 mph - N/A   Mostly Cloudy
11:35 AM 77.2 °F 69.3 °F 76% 29.94 in 10.0 mi West 6.9 mph - N/A   Mostly Cloudy
11:55 AM 76.8 °F 69.3 °F 77% 29.94 in 10.0 mi WSW 6.9 mph - N/A   Mostly Cloudy
12:15 PM 77.4 °F 69.1 °F 76% 29.93 in 10.0 mi West 6.9 mph - N/A   Scattered Clouds
12:35 PM 78.1 °F 68.9 °F 73% 29.92 in 10.0 mi West 5.8 mph - N/A Thunderstorm Mostly Cloudy
12:55 PM 78.6 °F 68.9 °F 72% 29.91 in 10.0 mi WNW 8.1 mph - N/A   Scattered Clouds
1:15 PM 77.0 °F 68.4 °F 75% 29.92 in 10.0 mi Calm Calm - N/A   Mostly Cloudy
1:35 PM 77.4 °F 67.1 °F 71% 29.90 in 10.0 mi West 6.9 mph - N/A   Mostly Cloudy
1:55 PM 77.9 °F 65.5 °F 65% 29.90 in 10.0 mi West 12.7 mph 17.3 mph N/A   Scattered Clouds
2:15 PM 76.6 °F 65.3 °F 68% 29.86 in 10.0 mi NW 6.9 mph - N/A   Scattered Clouds
2:35 PM 75.4 °F 64.9 °F 70% 29.86 in 10.0 mi SW 3.5 mph - N/A   Clear
2:55 PM 75.6 °F 64.6 °F 69% 29.87 in 10.0 mi WSW 4.6 mph - N/A Rain Light Rain
3:15 PM 74.7 °F 65.3 °F 73% 29.88 in 10.0 mi West 3.5 mph - N/A   Clear
3:35 PM 74.5 °F 65.8 °F 74% 29.88 in 10.0 mi WNW 4.6 mph - N/A   Clear
3:55 PM 75.4 °F 65.3 °F 71% 29.90 in 10.0 mi West 6.9 mph - N/A   Clear
4:15 PM 74.8 °F 65.3 °F 72% 29.90 in 10.0 mi WSW 5.8 mph - N/A   Scattered Clouds
4:35 PM 74.3 °F 65.3 °F 73% 29.88 in 10.0 mi West 3.5 mph - N/A   Scattered Clouds
4:55 PM 74.3 °F 63.7 °F 69% 29.88 in 10.0 mi SW 4.6 mph - N/A   Scattered Clouds
5:15 PM 73.8 °F 63.1 °F 69% 29.89 in 10.0 mi SW 6.9 mph - N/A   Scattered Clouds
5:35 PM 73.0 °F 63.7 °F 72% 29.88 in 10.0 mi SSW 4.6 mph - N/A   Scattered Clouds
5:55 PM 72.5 °F 63.3 °F 73% 29.87 in 10.0 mi SSW 4.6 mph - N/A   Scattered Clouds
6:15 PM 71.1 °F 64.0 °F 78% 29.86 in 10.0 mi South 4.6 mph - N/A   Scattered Clouds
6:35 PM 70.9 °F 64.2 °F 79% 29.88 in 10.0 mi SW 3.5 mph - N/A   Mostly Cloudy
6:55 PM 70.7 °F 64.4 °F 80% 29.88 in 10.0 mi SSW 4.6 mph - N/A   Overcast
7:15 PM 70.2 °F 64.4 °F 82% 29.89 in 10.0 mi SW 4.6 mph - N/A   Light Drizzle
7:35 PM 68.9 °F 64.9 °F 87% 29.89 in 10.0 mi SW 4.6 mph - 0.01 in Rain Rain
7:55 PM 68.0 °F 65.3 °F 91% 29.87 in 10.0 mi WSW 3.5 mph - 0.01 in Rain Rain
8:15 PM 67.1 °F 65.3 °F 94% 29.88 in 10.0 mi SW 6.9 mph - N/A   Mostly Cloudy
8:35 PM 66.9 °F 65.3 °F 95% 29.89 in 10.0 mi West 13.8 mph 18.4 mph N/A   Overcast
8:55 PM 63.0 °F 61.7 °F 96% 29.85 in 10.0 mi West 3.5 mph 18.4 mph N/A   Overcast
9:15 PM 62.1 °F 60.8 °F 96% 29.86 in 10.0 mi West 5.8 mph - N/A   Overcast
9:35 PM 60.8 °F 59.2 °F 94% 29.88 in 10.0 mi West 9.2 mph - N/A   Overcast
9:55 PM 57.6 °F 54.5 °F 90% 29.89 in 10.0 mi West 10.4 mph 21.9 mph N/A Rain Light Rain
10:15 PM 56.7 °F 53.2 °F 88% 29.90 in 10.0 mi West 9.2 mph - N/A   Overcast
10:35 PM 55.4 °F 51.6 °F 87% 29.90 in 10.0 mi West 6.9 mph - N/A   Overcast
10:55 PM 54.9 °F 51.6 °F 89% 29.90 in 10.0 mi West 10.4 mph 18.4 mph N/A Rain Rain
11:15 PM 54.7 °F 52.0 °F 91% 29.90 in 10.0 mi West 8.1 mph - N/A Rain Light Rain
11:35 PM 55.0 °F 52.7 °F 92% 29.90 in 10.0 mi West 6.9 mph - N/A   Light Drizzle
11:55 PM 55.0 °F 52.7 °F 92% 29.89 in 10.0 mi West 4.6 mph - N/A   Light Drizzle